Theta_e
296 298 297 297 297 298 299 299 299 300 300 300 301 302 302 302 302 303 300 301 300 300 300 300 301 300 301 300 301 302 302 303 303 304 304 305 305 305 305 304 303 302 301 300 301 300 299 298 298 298 298 297 296 296 295 294 293 293 292 292 291 291 290 289 288 290 294 293 291 288 287 286 284 284 283 283 282 282 283 283 283 283 283 283 284
296 296 296 297 297 298 298 297 298 298 298 299 299 300 300 300 300 298 299 301 299 300 300 300 300 300 300 300 300 301 301 302 302 303 303 303 303 304 304 303 302 301 300 299 298 299 299 297 297 298 298 297 297 296 296 295 294 293 292 291 290 290 290 289 289 289 290 292 287 285 285 286 284 284 283 283 281 282 282 281 281 282 282 282 282
295 295 296 296 296 296 295 294 293 294 295 296 296 297 297 297 296 298 299 299 298 299 299 299 299 299 299 299 300 300 300 300 301 302 302 302 302 302 303 302 301 299 299 299 299 299 298 297 297 297 298 297 296 296 296 295 294 292 292 291 290 290 290 290 289 288 289 290 292 286 283 284 283 283 283 283 283 282 281 281 280 281 282 282 281
293 293 293 293 293 292 292 291 292 293 294 295 294 295 295 295 295 296 297 297 297 297 297 298 297 298 298 298 298 299 299 299 299 300 301 301 301 301 301 301 301 300 299 299 299 298 298 297 297 297 297 296 296 296 295 295 294 293 292 292 291 290 291 290 290 289 289 289 290 286 286 284 284 284 284 284 283 281 281 281 281 280 281 281 281
291 291 291 292 291 291 291 291 292 292 293 293 293 293 292 293 292 294 295 295 296 295 295 294 296 296 297 297 297 297 297 298 298 298 300 300 301 300 300 300 299 299 299 299 296 298 297 297 297 297 296 295 295 295 295 294 294 293 292 292 291 291 291 290 290 289 288 288 289 285 284 284 284 284 284 282 282 281 281 280 280 280 280 281 281
290 291 290 291 291 291 290 290 291 291 291 291 291 291 291 291 292 292 292 294 294 293 294 293 294 294 295 296 297 297 296 296 296 297 298 298 298 299 299 298 298 299 299 299 298 298 298 297 297 297 296 296 296 296 296 295 294 293 293 292 292 291 290 290 290 289 288 288 288 287 283 282 282 282 283 283 281 280 280 280 281 280 280 279 280
289 290 290 290 290 290 290 290 291 291 290 291 290 290 290 290 290 291 291 291 292 292 292 292 293 293 294 295 295 295 296 296 296 297 297 298 298 297 297 297 297 297 298 298 298 298 298 298 297 297 297 297 296 296 296 296 295 294 293 293 292 291 290 290 289 288 288 287 287 288 286 283 282 281 282 283 282 281 280 279 279 280 280 279 278
289 289 289 289 289 290 289 289 289 290 290 289 289 289 289 289 290 290 290 290 291 291 292 292 293 292 293 293 294 296 295 295 296 297 297 297 297 296 296 296 296 296 297 297 297 297 298 298 298 298 297 297 297 297 297 296 296 294 294 293 293 291 290 290 289 288 287 287 287 287 286 283 282 283 282 281 280 281 281 280 279 278 278 279 279
288 288 288 288 289 288 289 289 289 289 288 289 288 289 289 289 289 289 289 289 290 290 291 291 291 292 292 292 293 293 294 294 296 295 296 296 297 296 296 296 296 295 296 296 296 297 297 297 297 298 297 294 293 294 295 295 297 295 295 294 292 291 290 290 289 288 288 287 286 287 285 283 281 280 279 279 279 279 281 280 280 280 279 278 279
288 287 287 288 288 288 288 287 288 288 288 288 288 288 288 288 288 288 289 289 289 290 290 290 290 291 291 292 292 293 293 295 292 293 294 296 296 297 297 296 295 295 295 295 296 296 296 296 297 293 292 291 291 292 293 293 293 295 296 294 293 291 290 289 289 289 288 287 286 286 285 283 282 281 279 280 281 282 280 279 278 280 278 277 278
287 287 288 288 287 287 287 287 287 288 288 288 288 288 288 288 288 288 288 288 289 289 289 289 290 290 291 291 292 292 293 294 292 294 295 295 295 295 295 295 295 295 295 295 295 295 295 296 296 294 292 291 292 291 293 293 293 293 293 293 293 293 291 290 289 289 288 287 288 287 286 285 285 284 282 282 282 281 281 280 279 279 277 275 274
287 288 287 288 288 288 288 288 289 289 288 289 288 288 287 287 288 288 288 288 288 288 288 289 289 290 290 291 291 292 293 292 293 294 294 295 294 294 295 295 295 295 295 295 295 295 295 295 295 296 296 295 295 294 292 292 292 292 293 293 293 293 293 292 290 289 289 288 287 287 286 286 286 286 284 283 282 281 281 280 280 279 278 277 278
287 288 288 288 288 288 288 288 288 289 288 288 288 288 288 288 288 288 289 289 288 288 289 289 289 289 289 290 290 291 292 292 293 294 294 294 295 294 295 295 294 294 294 295 294 294 294 294 294 295 296 291 291 294 294 293 291 291 291 291 292 292 293 294 293 292 291 289 288 288 288 287 287 287 286 284 284 280 281 280 280 280 280 279 279
287 287 287 287 287 287 287 287 287 287 287 287 287 287 287 288 288 288 287 288 288 288 288 288 289 289 289 289 290 291 291 291 293 293 294 294 294 295 295 295 294 294 294 294 294 294 294 294 293 293 294 293 293 293 293 293 293 292 292 292 292 291 291 292 292 291 291 290 290 288 289 289 288 288 287 285 283 281 280 279 280 280 280 280 281
287 287 287 287 287 287 286 286 286 286 286 286 286 286 286 287 287 287 287 287 288 288 288 288 289 289 289 289 289 289 290 291 292 293 293 294 294 294 295 295 295 295 295 294 294 294 294 294 294 293 294 294 294 293 293 292 292 290 290 290 291 291 291 291 291 291 291 291 291 290 291 290 289 288 285 285 284 284 283 282 282 282 282 281 278
286 286 286 286 286 286 286 286 286 286 285 285 285 285 286 286 286 287 287 287 287 287 287 287 287 287 288 288 288 288 289 290 291 292 293 294 294 294 294 294 294 294 294 294 294 295 295 294 293 293 293 294 292 292 292 292 291 289 289 289 290 290 290 291 291 291 291 291 291 290 290 290 289 287 286 285 285 285 285 284 284 282 280 278 277
285 285 285 286 286 286 285 285 285 285 285 285 285 285 285 286 286 286 286 286 286 287 286 287 287 287 287 287 287 288 288 289 290 291 292 293 293 292 293 292 292 293 293 294 294 294 294 294 293 293 293 293 292 293 293 292 290 289 289 288 289 289 289 289 290 291 291 291 292 292 292 292 292 291 289 288 286 285 283 282 280 281 279 277 278
285 285 285 285 285 285 285 285 284 284 284 284 285 285 285 285 285 285 285 286 286 286 286 287 287 287 287 287 288 287 288 288 289 290 291 292 291 291 291 290 290 291 292 293 293 293 293 289 290 293 292 292 292 293 293 291 290 289 288 288 287 287 288 288 288 288 290 290 290 290 291 291 290 290 290 289 288 286 283 281 282 281 279 279 276
284 284 284 285 285 284 284 284 284 283 283 284 284 284 284 285 285 285 285 285 285 286 286 286 286 286 286 286 286 286 287 287 289 290 291 291 291 289 289 289 289 289 290 290 292 292 293 291 289 289 291 291 292 293 293 291 289 289 288 288 287 287 288 288 287 286 286 286 286 287 287 288 287 287 287 288 287 286 285 284 283 280 279 279 278
284 284 284 284 285 285 284 283 283 283 283 283 284 284 284 284 284 284 285 285 285 286 286 285 285 286 286 286 286 287 287 287 287 289 290 290 291 289 289 288 288 288 289 289 289 290 291 291 291 291 292 292 292 293 292 292 290 289 289 288 287 286 288 288 287 286 285 285 285 285 285 286 286 286 286 286 286 285 284 285 283 282 281 280 278
284 284 284 284 284 284 284 284 283 284 284 284 284 283 284 284 284 283 283 284 284 284 284 285 285 285 286 286 286 286 286 286 287 288 289 290 291 290 288 288 288 288 288 288 289 289 289 291 291 291 292 292 292 292 292 292 291 289 289 288 288 288 289 288 286 285 285 285 285 284 285 285 285 285 285 285 285 285 284 285 283 283 283 281 279
283 283 282 282 283 283 283 283 284 283 284 284 283 283 284 283 283 283 283 283 282 282 283 284 284 285 286 286 286 286 286 285 287 287 289 289 290 290 288 288 288 288 288 288 288 288 289 290 289 290 291 291 291 291 292 292 292 290 289 291 291 291 289 288 287 286 285 284 284 284 284 284 283 284 284 284 284 284 284 284 283 283 285 284 282
281 281 281 281 281 282 282 282 282 283 283 283 283 283 283 283 282 282 281 281 281 281 282 283 283 284 285 286 287 286 286 286 285 286 287 288 289 290 290 289 290 288 287 287 287 288 289 289 289 288 289 290 290 291 291 291 290 290 291 291 291 291 289 288 287 285 284 284 283 282 283 283 282 283 283 283 283 283 283 283 282 283 282 281 282
279 279 279 279 279 280 280 280 281 282 282 282 282 282 282 283 282 282 281 281 281 281 282 283 283 283 283 285 286 287 286 286 285 285 286 287 289 290 290 290 290 288 288 287 288 288 288 288 288 289 289 289 290 290 290 290 289 290 291 291 290 289 288 287 286 285 283 283 282 281 282 282 282 282 282 283 282 282 282 281 281 281 280 279 279
277 276 277 277 277 278 278 279 280 280 281 282 281 281 281 282 281 282 281 280 281 281 281 282 282 282 283 283 284 286 286 286 285 285 285 286 287 289 289 290 290 290 288 288 288 288 288 289 289 289 289 289 289 290 289 289 289 289 289 289 288 288 287 286 285 284 282 281 281 282 282 282 282 283 283 282 281 281 280 279 279 278 278 277 277
274 274 274 275 275 276 276 277 279 280 280 281 281 281 281 281 281 281 281 281 281 280 281 281 282 282 282 283 284 285 285 285 285 284 283 284 284 286 287 287 287 287 287 287 287 288 288 288 288 288 287 287 287 287 287 287 287 287 287 287 287 287 286 285 284 283 281 282 282 281 282 282 281 282 282 281 279 278 278 276 275 275 276 276 275
271 272 272 272 273 275 275 276 277 278 279 280 280 280 280 280 280 280 280 280 280 280 281 281 281 282 282 283 283 284 284 285 285 284 283 283 283 284 284 285 285 285 285 286 286 286 286 286 286 286 286 286 286 286 286 286 286 286 286 286 286 286 286 285 284 283 282 282 282 282 281 281 280 279 279 279 278 278 278 277 276 275 276 276 274
269 269 270 271 272 273 274 275 275 276 277 277 278 278 279 280 279 279 280 280 280 280 280 281 281 281 282 282 283 283 283 284 285 285 284 284 284 284 284 284 284 285 285 285 285 286 286 285 286 285 285 285 285 285 285 285 285 285 285 285 285 286 285 285 285 284 283 283 282 281 278 278 278 278 278 278 278 277 277 277 276 274 275 275 273
268 268 269 270 270 271 272 272 273 274 275 276 277 278 278 278 279 279 281 281 281 280 280 280 281 281 282 282 281 281 282 283 284 286 285 286 286 286 285 285 285 285 285 286 286 285 285 284 284 283 283 283 282 282 282 283 283 284 284 284 285 285 284 284 283 282 282 281 279 278 277 277 277 278 277 277 276 276 277 276 276 275 275 276 273
267 267 268 268 268 269 270 271 272 273 273 273 274 276 278 280 280 279 279 282 283 284 284 282 282 283 282 283 284 282 282 284 286 286 287 287 287 287 287 288 288 287 286 287 286 284 284 283 283 283 282 282 281 281 281 281 281 282 283 283 284 284 283 283 283 283 282 281 279 277 276 276 276 276 276 275 275 275 276 276 274 275 274 274 272
265 265 266 266 267 268 269 269 270 271 272 272 273 274 275 277 279 281 281 281 282 283 284 284 284 285 284 283 284 286 286 286 286 286 286 287 287 287 287 287 288 288 288 286 285 284 283 282 282 282 281 281 280 280 281 281 281 281 281 282 283 283 283 282 282 282 281 280 278 278 277 276 276 276 275 275 274 274 275 275 275 275 275 275 272
263 263 264 265 266 267 268 269 269 270 271 272 272 273 273 273 275 279 281 281 282 283 283 284 284 284 285 285 284 284 285 286 286 286 286 286 286 286 287 287 287 287 287 287 284 283 283 282 281 281 280 280 280 280 280 280 280 281 281 281 281 282 282 281 282 281 280 279 277 277 277 276 276 276 275 274 274 274 274 273 274 274 275 275 273
261 262 263 264 265 266 267 267 268 269 269 270 271 272 272 272 273 274 277 280 281 282 283 283 284 284 285 285 285 285 285 286 286 286 286 286 286 286 286 287 287 287 287 285 283 282 283 282 280 280 280 279 280 280 280 280 280 281 281 281 280 280 281 282 281 280 279 279 278 277 277 276 276 275 275 274 274 273 273 273 274 274 274 274 273
261 262 263 263 264 264 265 266 266 267 268 269 270 271 271 272 272 273 274 275 278 280 282 283 283 284 284 285 285 285 286 286 286 286 286 286 286 286 286 285 286 287 286 283 283 282 282 281 280 280 280 280 280 280 280 280 280 280 281 281 280 280 280 280 280 279 279 278 277 277 277 277 276 275 274 274 274 274 273 273 273 273 273 273 272
261 262 263 264 263 263 264 265 266 266 267 268 269 270 270 272 273 273 274 274 275 276 277 279 282 283 283 284 285 285 285 285 285 286 286 286 286 286 286 284 283 283 283 283 283 282 281 280 280 280 280 279 280 280 279 280 280 280 280 281 279 279 278 279 279 279 278 278 277 277 277 276 276 276 274 274 273 273 273 273 273 273 273 273 272
260 261 261 262 263 263 264 265 266 266 266 267 268 269 271 272 272 273 275 276 276 276 277 279 280 282 283 284 284 284 285 285 285 285 285 285 285 285 282 281 281 281 281 282 282 282 281 280 280 280 280 280 280 280 280 280 280 280 281 280 278 278 278 278 278 278 278 278 277 277 276 276 276 275 275 274 274 273 273 273 273 273 273 273 272
260 260 261 261 262 263 264 265 265 266 267 268 268 269 270 271 273 274 275 276 276 277 277 278 279 280 282 282 283 283 284 284 284 284 284 284 285 284 283 282 281 281 281 281 281 280 280 280 280 280 280 279 279 279 280 280 280 280 280 280 279 278 278 278 278 278 278 277 277 276 276 276 276 275 275 274 274 274 274 273 273 273 273 272 271
260 260 260 261 262 263 263 264 265 266 266 267 268 269 269 270 272 273 274 274 275 275 276 277 278 278 278 280 283 282 282 282 282 282 283 283 283 282 282 282 281 281 281 281 280 280 280 279 280 279 279 280 279 279 279 279 280 280 279 279 279 279 279 278 278 278 277 277 276 276 276 276 276 275 275 274 274 273 273 273 272 272 272 271 271
260 261 262 263 263 263 264 264 265 265 266 267 267 268 269 270 271 272 272 273 273 274 275 276 277 278 279 281 281 281 280 279 279 279 280 280 281 281 280 280 280 280 279 279 279 279 279 279 278 279 279 279 279 279 279 279 279 279 279 278 278 278 279 278 277 277 277 277 276 276 276 276 275 276 275 275 274 273 272 272 272 271 271 271 271
260 260 261 263 263 263 264 264 265 265 266 266 267 268 269 270 270 271 272 272 272 273 274 275 276 277 279 280 279 279 278 278 278 279 279 279 278 278 278 278 278 277 277 277 277 277 277 277 277 277 277 277 277 277 277 277 278 278 278 278 278 278 278 278 277 277 276 276 276 276 275 275 275 275 275 275 274 273 272 272 272 272 271 271 270
260 261 262 263 263 263 264 264 265 265 266 267 268 269 269 270 270 271 271 271 272 273 274 275 276 277 279 279 280 280 278 278 278 277 276 276 276 275 275 275 275 275 275 275 275 275 276 275 275 275 275 275 276 276 276 276 276 276 277 276 277 277 276 276 276 276 275 274 275 274 274 274 274 274 273 273 273 273 272 272 271 271 271 270 269
260 261 261 262 263 263 263 264 265 266 267 267 267 267 268 268 269 269 270 270 271 272 273 275 276 278 277 278 279 280 279 277 276 275 275 273 272 271 271 270 271 272 273 273 274 274 274 274 274 274 274 274 274 274 274 275 275 275 275 275 275 275 274 274 274 274 274 274 273 273 273 273 273 273 273 273 272 272 271 271 271 270 270 269 269
261 261 261 262 262 263 263 264 265 265 265 265 265 266 266 267 266 267 267 268 269 270 271 272 273 274 274 275 275 276 274 273 272 271 270 269 268 267 267 267 268 268 268 269 271 272 272 270 269 269 269 269 270 272 272 273 273 274 274 274 274 274 273 273 273 273 272 272 272 271 272 272 272 272 272 272 272 271 271 270 270 270 269 269 268
260 261 261 262 262 262 263 263 263 263 264 264 265 265 265 265 265 265 265 265 266 267 268 269 268 269 268 269 269 268 266 266 266 265 265 265 264 264 264 264 264 265 265 266 268 269 269 268 267 266 266 266 266 267 267 268 271 272 273 273 272 272 272 272 272 272 272 271 271 271 271 271 271 271 270 271 271 270 269 269 269 269 268 268 268
259 260 260 260 261 261 261 261 262 262 263 263 262 263 264 263 263 263 264 264 264 265 265 265 265 265 265 264 264 263 263 263 263 262 262 262 262 262 262 262 262 262 263 264 265 266 267 266 266 265 265 265 265 265 265 266 266 268 270 272 272 272 272 272 272 272 272 271 270 270 270 270 270 270 270 270 270 270 269 269 268 267 267 267 267
258 259 259 259 259 260 260 260 261 260 260 261 261 261 262 262 262 262 262 262 263 263 263 263 263 263 262 262 262 262 261 261 261 261 261 261 261 262 262 262 262 262 262 262 263 263 263 264 264 264 264 264 264 264 265 264 264 265 266 266 267 268 270 272 272 272 271 271 271 270 270 270 270 269 269 270 270 270 269 269 268 268 267 266 267
256 257 258 258 258 259 259 259 259 259 259 260 260 260 260 261 261 261 261 262 261 262 261 261 261 261 262 261 261 260 261 260 260 260 260 260 261 261 261 261 261 261 261 261 261 261 261 262 262 263 263 263 263 263 263 264 264 264 263 264 264 266 267 269 270 271 271 271 271 271 270 269 269 269 268 269 269 269 268 268 267 267 267 267 266
255 256 257 258 258 257 257 258 258 259 258 258 259 259 260 260 260 260 260 260 260 260 260 260 260 260 261 261 261 260 260 260 260 260 260 260 260 260 260 260 260 260 260 260 260 260 260 261 261 261 261 261 261 261 262 263 264 264 264 263 262 262 263 265 267 267 269 270 271 270 270 270 269 269 268 269 268 268 267 267 267 267 267 266 266
255 255 255 256 256 256 256 257 257 257 257 258 258 258 258 259 259 259 259 259 259 259 259 259 259 260 260 260 260 260 260 260 259 259 259 260 260 260 260 260 259 259 259 259 259 259 259 259 259 259 259 260 260 261 261 261 262 263 263 263 263 263 262 262 263 264 265 268 269 269 269 269 268 268 267 268 268 268 268 267 266 266 265 265 265
254 255 255 255 255 255 256 256 256 255 256 257 257 257 258 258 258 258 258 258 258 258 258 258 258 259 259 259 259 259 259 259 259 259 259 259 259 259 259 259 259 259 258 258 258 258 258 258 258 258 259 259 260 260 261 261 262 262 262 263 263 263 262 262 261 261 263 265 265 266 266 266 266 266 266 266 266 266 265 265 264 264 264 263 263
254 254 254 254 254 255 254 254 254 255 255 256 256 256 256 256 257 257 257 257 257 257 258 258 258 258 258 258 258 258 258 258 258 258 258 258 258 258 258 258 258 258 258 258 257 257 257 257 257 257 257 258 259 260 261 262 263 263 263 263 262 262 261 261 260 260 260 261 263 264 264 264 264 264 264 264 264 264 263 262 262 263 263 262 262
Wind_Speed
6 6 4 5 5 7 6 5 6 5 6 7 7 8 7 7 7 7 3 7 7 7 8 8 8 8 8 9 10 10 9 9 8 8 9 11 10 11 11 11 12 12 10 12 12 13 14 15 15 16 14 14 12 12 12 13 12 12 11 12 12 11 13 14 17 21 14 7 8 5 9 10 9 13 14 13 12 13 15 12 9 10 9 9 9
5 5 4 4 6 5 5 4 5 5 6 7 8 8 7 7 7 5 8 7 7 8 8 7 7 8 9 10 9 9 9 10 8 8 10 11 12 10 11 11 12 12 10 12 11 11 11 12 14 13 12 14 13 13 12 12 12 12 13 12 13 13 12 13 16 15 21 7 7 2 4 11 10 10 14 13 12 9 11 10 8 9 9 8 8
4 4 4 5 6 5 4 4 4 4 6 7 8 8 7 7 6 7 8 7 6 7 7 7 8 8 9 9 9 9 9 9 9 10 11 12 12 12 11 11 12 12 12 13 13 12 13 14 14 13 10 13 14 14 13 13 12 13 14 11 13 13 12 14 13 16 18 17 10 8 8 6 10 10 12 11 10 11 11 12 10 7 7 8 8
3 3 4 5 3 2 3 3 3 5 6 7 9 8 7 7 6 7 7 6 6 6 6 7 7 8 9 9 9 9 9 9 10 10 12 12 12 13 12 12 12 12 12 12 12 11 13 13 14 13 13 14 14 13 12 12 12 12 13 13 13 14 13 13 16 15 15 15 11 9 6 9 8 5 7 8 10 11 12 10 9 10 11 11 11
2 3 3 3 2 2 3 2 3 4 7 7 9 8 7 7 6 6 5 6 6 5 6 5 6 7 9 9 9 9 9 9 10 11 11 11 12 12 12 11 11 12 12 12 12 12 12 14 13 11 12 13 13 13 12 13 13 12 13 12 13 13 11 12 14 14 15 16 13 5 4 6 6 7 9 11 10 10 10 13 13 13 13 12 8
2 1 1 1 2 2 4 3 5 6 7 8 8 7 7 6 5 5 5 6 6 6 6 6 7 8 8 9 8 9 8 8 10 11 11 11 11 11 11 11 11 12 12 12 12 12 13 13 12 11 12 14 14 13 13 15 13 13 14 13 12 12 13 13 12 13 14 16 14 11 6 7 5 6 8 10 10 10 8 9 9 11 10 8 8
3 1 2 1 3 4 4 5 5 6 7 7 7 6 6 6 5 5 4 5 6 7 6 7 7 7 8 7 8 8 8 8 10 11 11 11 11 11 11 11 12 11 12 12 12 12 12 12 12 12 13 13 14 14 13 13 12 15 14 14 13 13 13 13 12 14 14 15 14 13 10 8 8 7 7 9 10 10 13 12 14 12 10 10 6
4 3 3 4 4 5 5 5 5 6 6 6 7 7 6 5 5 5 4 5 6 7 7 7 7 6 8 7 8 8 8 8 9 10 10 10 11 11 11 11 11 12 12 12 12 12 12 13 13 12 13 13 13 13 12 13 11 13 12 12 13 13 14 13 12 12 13 13 14 13 10 9 5 2 4 7 9 9 11 14 17 15 15 12 14
3 3 2 2 4 5 5 5 5 5 6 7 7 6 5 5 5 4 5 6 6 7 7 7 7 8 8 8 8 7 8 9 9 9 10 10 11 11 12 12 12 12 12 12 12 12 12 12 13 13 14 16 19 17 16 14 12 13 13 12 13 13 13 11 12 12 12 12 13 9 9 10 8 7 9 11 16 18 12 12 12 10 12 10 11
2 2 1 3 4 4 4 4 4 5 6 6 5 4 4 4 4 5 5 5 6 6 6 7 7 8 8 7 7 8 9 8 11 15 14 11 10 10 11 11 11 12 12 12 12 12 13 12 13 17 18 18 18 19 20 20 20 17 13 11 13 13 13 13 13 12 12 14 14 12 13 14 13 13 10 12 6 4 8 13 13 9 8 6 1
4 2 2 3 3 3 2 3 4 2 4 4 5 5 5 5 5 5 5 5 6 6 6 6 7 7 8 8 8 8 8 9 14 14 16 18 14 11 11 12 11 12 12 12 13 12 12 12 12 14 16 16 17 20 20 21 22 23 24 23 18 15 13 14 14 13 13 14 13 12 15 16 15 12 15 13 9 12 9 10 12 10 13 12 14
4 3 3 3 3 4 4 5 6 7 7 8 7 6 6 6 6 6 6 6 5 4 6 7 7 7 7 7 9 9 9 11 15 15 16 17 16 13 11 11 11 11 12 12 12 12 12 12 12 11 11 12 12 13 17 22 23 24 25 25 24 25 22 17 15 13 14 13 13 15 15 16 14 12 13 11 13 11 12 11 13 15 15 18 17
6 6 7 7 7 7 7 8 8 8 9 8 8 8 8 8 8 8 8 7 6 7 7 7 8 7 7 8 9 9 10 12 14 16 16 17 18 16 11 11 12 12 12 13 13 12 12 12 12 10 10 13 12 12 12 13 17 22 24 24 24 25 25 27 25 19 12 14 16 17 16 15 14 14 13 15 12 12 11 11 14 14 15 17 15
5 6 5 6 7 7 7 8 8 8 8 8 8 8 8 8 8 7 7 7 7 8 8 8 8 8 8 9 9 9 10 11 14 15 16 17 17 15 12 13 13 13 13 13 13 13 13 12 12 12 9 9 10 11 11 12 12 12 14 14 15 18 22 25 26 26 22 17 16 18 17 12 15 14 11 12 13 15 16 17 15 14 15 18 16
7 6 6 6 6 7 7 7 7 8 8 7 7 6 8 8 7 6 5 7 8 8 8 8 9 8 9 9 9 10 10 12 13 15 16 17 18 16 12 12 12 13 13 13 14 14 13 13 13 14 12 10 10 10 11 12 11 12 13 13 14 14 14 15 16 15 17 17 18 19 18 13 14 10 9 14 19 18 18 19 20 19 14 3 6
9 9 9 9 9 8 7 7 7 7 7 7 6 7 7 7 8 7 6 6 6 6 7 6 9 10 10 9 10 11 10 12 14 15 16 17 18 12 11 12 13 13 14 13 13 13 12 12 12 13 13 13 12 15 15 12 11 14 14 14 13 13 13 14 16 18 17 16 16 17 16 14 11 10 12 13 13 11 8 5 6 7 9 9 8
10 10 9 9 9 9 8 9 9 9 8 7 7 7 7 8 7 5 7 7 7 7 8 7 7 8 9 9 10 11 10 11 14 15 15 18 14 10 11 10 12 13 14 13 12 12 12 11 11 12 13 13 12 14 17 16 13 15 14 15 14 13 13 10 15 20 21 22 24 23 22 24 22 21 18 21 16 13 10 10 14 13 11 11 11
9 9 9 9 9 8 8 8 8 8 8 8 8 7 7 6 6 5 6 8 8 8 8 8 8 8 10 11 10 11 11 10 14 16 17 17 15 11 9 9 11 12 12 13 11 11 13 16 14 13 14 13 13 15 17 15 13 14 14 14 16 16 14 9 8 10 17 22 23 23 22 21 19 20 21 23 23 18 16 19 16 12 15 14 12
9 10 9 8 7 7 7 7 6 7 7 8 7 8 8 8 8 6 6 7 9 8 7 8 9 8 8 11 11 12 11 10 13 15 15 15 13 8 9 8 11 11 10 12 12 10 11 11 15 15 15 15 18 17 18 15 12 13 13 14 16 16 13 8 10 10 9 10 12 13 13 16 15 14 14 24 24 24 18 16 11 14 15 12 10
8 8 8 8 7 7 6 6 6 6 8 8 7 7 7 7 7 7 7 6 8 8 7 8 10 10 7 8 9 9 10 10 7 13 14 14 15 10 7 8 10 11 10 11 11 10 10 10 11 14 17 19 19 20 19 19 15 13 12 13 14 17 9 10 12 10 11 11 12 11 13 11 10 11 10 13 17 20 16 14 14 15 14 13 13
8 8 8 8 8 7 6 6 8 7 6 7 8 7 6 7 8 7 9 8 7 9 10 9 10 12 9 7 8 8 7 9 9 11 13 14 15 14 8 10 10 10 11 11 10 11 10 9 8 10 14 17 18 19 19 19 18 14 13 13 13 14 13 10 11 13 12 11 10 9 9 9 10 10 10 12 13 13 14 13 12 14 15 15 13
7 8 8 8 8 8 8 8 7 8 8 7 9 9 6 6 7 8 7 8 10 11 10 9 10 12 12 10 8 9 8 10 10 10 13 14 15 16 11 10 9 8 11 12 11 10 10 9 9 9 13 15 16 17 19 19 20 14 14 17 19 19 15 12 9 7 8 8 8 9 9 8 7 8 10 10 11 12 13 11 10 12 9 9 15
9 9 9 9 10 10 9 10 10 8 9 9 9 11 10 8 9 7 7 9 9 10 11 10 10 12 13 12 9 9 8 8 11 10 11 13 15 15 17 14 14 10 10 13 13 11 9 10 10 13 14 16 17 17 18 20 17 14 19 20 20 21 17 11 9 8 8 9 9 9 8 10 9 10 10 9 8 10 11 10 8 9 6 2 2
10 10 10 10 11 11 11 11 9 9 9 10 10 10 11 10 9 8 7 8 9 11 11 9 9 11 12 13 12 10 8 7 9 12 11 12 14 17 17 17 17 11 10 11 11 11 11 10 11 15 16 17 18 18 18 18 14 18 19 21 20 18 12 10 9 9 9 9 8 8 9 9 9 9 9 9 9 10 10 10 9 8 7 6 6
12 11 11 11 11 12 12 11 11 10 9 9 11 11 12 10 11 10 7 7 8 9 11 10 10 11 11 12 13 12 10 8 8 9 12 13 14 16 17 18 18 18 13 12 12 11 14 18 19 18 18 18 20 20 18 19 22 21 21 19 17 11 10 9 9 8 8 8 8 9 9 9 9 10 8 8 8 7 7 6 6 7 8 8 8
12 13 12 11 12 12 13 13 11 10 11 9 8 8 10 11 10 11 9 8 8 9 10 10 11 11 11 12 12 13 12 10 9 7 6 9 10 12 16 18 19 18 17 15 17 19 20 20 21 20 18 17 14 12 11 11 15 18 19 18 11 10 9 8 8 9 9 8 9 10 9 6 6 6 7 9 9 9 8 8 10 7 9 10 10
10 9 10 11 11 10 11 10 11 11 9 8 8 8 8 9 10 11 10 9 9 9 10 10 12 11 12 12 12 12 12 12 11 7 4 5 6 9 9 10 14 15 12 11 12 13 15 15 12 12 12 16 17 16 15 14 12 10 8 8 9 9 9 8 8 8 8 9 8 7 5 5 5 6 7 7 7 8 9 11 11 8 10 9 10
10 10 11 9 9 9 10 12 12 10 10 9 9 10 9 8 9 11 12 10 10 11 11 11 12 12 12 12 13 13 14 13 11 8 6 7 6 6 7 7 7 7 11 10 9 10 10 10 11 9 9 9 8 7 7 7 8 8 7 7 8 8 9 11 9 8 8 7 5 4 5 6 7 8 8 8 9 9 8 9 11 9 9 11 9
10 9 9 8 8 9 8 9 9 10 11 10 9 8 10 11 11 13 12 9 8 10 12 13 13 11 10 11 12 12 14 15 13 6 7 9 9 9 8 8 8 10 11 15 11 10 9 11 11 10 9 9 7 7 5 5 6 7 8 8 7 7 6 7 9 7 7 5 5 7 8 7 8 7 8 8 8 7 7 8 8 10 9 9 9
10 9 8 8 8 9 8 8 9 10 11 11 13 13 11 13 13 13 15 16 15 18 17 15 15 12 12 12 12 13 14 16 21 22 21 21 21 21 19 19 18 15 16 18 13 11 10 10 11 11 9 7 7 7 6 6 6 6 7 8 9 8 6 6 7 7 6 7 7 8 7 8 8 8 8 8 8 7 8 10 10 10 10 9 8
8 8 9 8 9 10 10 10 10 10 9 11 11 13 16 16 14 17 20 23 24 24 22 25 28 26 18 15 16 22 23 24 25 26 26 24 23 22 21 21 21 20 20 14 11 12 10 9 10 9 8 6 6 6 6 6 6 6 7 7 7 7 7 7 7 5 7 7 7 9 9 9 9 9 9 9 9 7 6 7 8 10 8 8 9
8 8 8 9 11 10 9 10 11 11 11 10 10 12 13 15 19 17 14 15 21 26 26 25 25 25 27 23 19 16 20 22 21 23 24 23 21 20 20 21 22 23 21 21 13 12 10 9 8 7 6 5 6 6 6 6 7 6 6 6 7 6 6 7 6 7 7 8 8 8 9 9 10 9 9 9 11 10 8 8 9 9 7 5 7
9 9 9 10 10 11 10 10 11 10 11 12 11 11 12 13 15 18 20 18 17 19 24 27 26 23 24 24 24 22 22 24 27 26 24 23 23 21 21 24 24 23 22 14 11 10 9 8 6 6 6 6 7 6 6 6 6 6 6 6 6 5 6 6 7 7 7 8 9 9 9 9 9 9 9 10 11 10 8 7 7 8 7 9 8
9 8 9 10 11 10 9 10 11 11 11 11 12 11 11 12 13 15 17 18 19 15 14 17 20 24 27 25 22 21 22 24 25 25 24 22 22 22 21 17 21 21 17 11 9 9 9 6 6 6 6 6 6 6 6 6 5 6 6 6 4 4 4 5 7 7 7 7 8 8 8 9 8 10 10 10 8 7 9 7 9 10 9 9 9
7 9 14 12 9 9 9 9 10 11 12 12 12 12 13 13 13 14 14 16 17 18 17 17 17 17 17 18 20 21 21 22 23 23 22 21 21 21 21 14 12 9 8 8 8 8 7 7 6 6 5 6 6 5 6 6 6 6 6 4 4 4 4 5 7 7 7 7 7 8 8 9 10 9 11 10 9 7 7 7 9 9 11 10 9
8 8 8 9 8 8 8 9 10 10 12 12 13 13 14 14 14 13 14 14 14 15 16 16 15 15 21 21 22 22 22 21 20 21 21 22 22 20 13 11 9 8 6 6 7 8 7 6 6 6 5 5 5 5 6 6 5 6 5 4 5 5 4 4 5 6 6 7 7 8 8 8 9 8 7 7 10 10 9 10 10 8 8 8 8
8 8 8 8 8 8 9 9 10 11 13 14 14 13 14 14 14 14 14 14 14 14 14 15 14 14 12 9 12 16 20 19 18 19 19 19 21 14 10 8 8 7 6 7 6 5 5 5 4 4 4 4 4 4 4 5 5 4 4 4 5 5 5 5 6 5 7 6 7 8 8 8 8 8 8 10 8 7 8 7 8 8 8 10 11
9 9 8 9 9 10 10 9 10 14 12 11 12 13 14 14 14 14 14 15 16 15 14 14 14 13 13 12 11 9 11 16 15 13 13 13 11 8 7 6 6 6 7 5 4 4 4 3 3 4 4 4 4 3 4 4 3 3 3 3 4 5 7 6 8 7 6 7 6 7 7 7 6 8 7 9 10 10 10 9 10 9 10 11 10
7 12 17 19 15 11 9 10 11 10 10 11 11 12 14 14 14 13 13 13 15 15 14 13 12 13 11 10 9 8 10 8 6 7 6 5 5 5 4 5 5 5 3 2 3 4 4 4 3 3 3 3 3 3 3 3 3 3 3 4 4 4 6 4 5 6 6 6 6 7 7 7 7 8 9 8 8 9 9 9 8 9 9 9 9
9 9 10 16 11 11 10 11 11 11 11 11 11 11 11 13 13 14 13 13 15 15 14 14 13 12 11 10 9 8 7 7 7 6 5 4 4 3 2 2 1 0 0 1 1 1 1 0 0 0 0 0 0 0 0 1 1 2 3 4 4 4 5 5 6 6 5 6 7 7 7 7 8 8 7 6 8 8 9 8 8 8 8 8 8
8 9 9 11 12 10 10 10 9 9 9 10 10 11 12 13 13 14 13 14 15 15 14 14 14 14 11 12 16 13 9 8 6 4 3 3 3 4 4 4 3 3 3 2 2 1 1 1 1 1 2 2 2 1 1 1 1 1 2 2 2 3 3 3 4 5 5 6 6 6 6 7 7 7 7 6 6 7 7 7 7 7 8 8 8
8 8 9 9 10 9 9 9 9 11 11 12 11 11 12 13 13 13 14 15 15 14 13 12 11 9 11 18 14 15 8 3 3 2 3 5 5 5 5 5 5 5 4 4 3 3 3 3 3 3 3 3 3 3 2 2 2 2 2 2 3 3 3 3 3 4 4 4 5 6 5 6 6 6 7 7 7 6 7 7 7 7 7 7 8
8 8 8 9 9 9 10 10 10 10 10 10 11 11 12 12 12 13 13 13 13 13 12 11 10 9 8 13 15 13 6 6 5 6 6 6 5 5 6 5 5 5 5 4 4 4 3 4 4 4 4 4 4 3 3 2 1 2 2 2 3 3 4 4 4 4 4 4 4 5 6 6 6 6 6 6 6 7 7 8 8 7 7 8 8
7 7 8 8 9 8 9 9 10 10 9 12 12 11 11 11 11 11 12 12 12 11 10 10 9 9 8 10 11 9 8 8 7 7 7 6 6 6 5 5 5 5 5 6 6 5 5 5 4 5 5 5 5 5 5 4 4 2 2 3 3 3 3 3 4 4 5 5 5 5 5 6 6 6 6 6 7 7 7 8 8 8 8 7 7
6 6 7 7 7 7 8 8 9 9 11 10 9 9 10 9 10 11 11 11 12 11 10 9 9 8 8 8 8 8 8 7 7 7 7 7 7 6 6 7 7 6 6 6 7 7 6 6 5 6 6 6 6 6 6 6 6 5 4 3 2 3 2 3 3 3 4 6 5 5 5 6 6 5 6 6 6 7 8 8 8 8 8 8 8
6 6 7 7 7 7 8 7 9 8 8 8 9 9 9 9 9 10 10 10 11 10 10 10 10 9 8 7 7 8 7 7 7 7 7 7 7 7 7 7 6 6 6 6 6 6 6 7 6 6 6 5 6 7 7 6 6 6 6 6 5 4 3 3 3 4 4 5 5 5 5 5 5 5 6 6 6 6 7 7 7 8 7 8 8
6 5 6 6 6 7 7 8 7 7 8 8 8 9 9 9 9 9 10 11 11 10 10 10 10 9 9 8 8 8 8 7 7 7 7 7 7 7 7 6 6 6 6 7 7 6 7 7 7 6 6 6 6 7 7 6 7 7 6 5 5 5 5 4 4 3 3 4 5 5 6 6 6 6 6 6 6 6 7 8 8 9 8 8 8
5 5 5 6 6 6 7 7 7 8 7 7 8 9 9 9 9 9 9 9 9 9 9 9 9 9 9 9 8 8 8 7 7 7 7 7 7 7 7 8 7 6 6 7 7 7 7 7 7 7 7 7 7 6 6 7 7 7 6 6 6 6 7 7 6 5 4 3 4 4 5 6 6 6 6 7 7 7 7 6 6 6 6 7 6
5 5 5 5 5 6 6 7 8 7 7 6 7 7 8 8 9 9 9 9 8 8 8 9 9 9 8 9 8 8 8 7 7 8 7 7 8 8 7 7 8 7 7 7 7 7 7 7 7 7 7 7 8 8 7 7 7 7 7 6 8 12 11 11 7 5 6 5 4 4 5 5 6 6 6 6 6 6 6 6 6 6 6 5 6
5 5 5 5 5 5 6 6 5 6 7 6 6 6 6 7 7 8 9 9 8 8 8 7 8 8 8 8 9 8 8 8 8 7 7 7 7 7 7 7 7 7 7 7 7 7 7 7 7 8 8 7 7 6 6 6 7 6 6 8 12 13 11 11 11 10 6 4 5 4 5 5 5 5 4 5 5 5 5 5 6 4 6 6 6
5 5 5 5 5 5 5 5 5 6 6 6 6 6 6 6 7 7 7 7 8 8 8 7 7 7 7 7 7 7 7 7 7 7 7 7 8 8 8 7 7 7 7 7 7 6 6 6 6 6 6 6 6 6 6 6 6 7 9 12 12 12 12 10 7 9 10 6 4 4 5 5 5 5 5 4 4 4 4 6 5 5 5 5 6
Wind_Direction
194 217 197 214 212 228 227 215 237 234 248 238 242 245 241 234 234 236 227 229 217 224 227 227 226 225 228 229 231 233 230 232 225 225 230 238 237 237 238 233 238 245 241 240 233 231 229 229 229 229 225 229 227 226 224 222 220 224 221 224 226 219 219 229 242 257 258 218 247 207 199 191 206 205 214 215 211 206 209 217 208 206 205 210 214
196 213 212 216 221 232 232 225 231 238 244 249 245 249 244 237 237 230 232 238 209 226 229 228 224 226 230 233 234 233 235 234 226 223 231 238 241 238 240 237 239 242 234 236 230 232 235 237 238 236 229 233 231 232 226 227 223 223 223 220 225 223 214 224 239 249 264 231 240 164 184 190 221 192 208 206 214 196 201 202 202 200 203 198 202
191 192 209 219 232 228 219 219 219 234 243 250 250 249 245 242 229 230 238 240 223 225 232 226 225 227 233 236 236 234 232 231 226 225 231 235 238 238 237 237 238 239 236 236 233 226 228 230 233 231 227 232 231 233 227 229 222 225 226 220 227 225 219 220 233 247 253 258 234 228 181 191 205 201 202 204 195 185 190 195 195 194 201 202 204
203 197 209 223 220 211 213 216 210 229 242 247 250 250 246 244 231 231 242 245 241 233 228 232 228 229 235 238 235 235 233 231 229 229 234 234 238 240 238 238 239 239 238 240 237 233 233 234 234 228 227 230 230 230 228 226 224 225 226 222 223 225 221 222 226 236 252 262 244 205 196 187 211 187 177 179 181 183 190 185 179 188 194 197 199
180 208 211 223 216 214 252 229 246 253 250 256 254 255 250 249 242 240 249 254 251 248 243 226 237 235 236 238 239 235 235 233 233 236 238 239 241 243 242 242 241 242 241 240 237 236 236 235 237 229 227 233 234 231 229 226 225 226 227 223 224 226 224 224 228 228 242 248 254 199 180 205 206 191 178 177 188 192 189 197 196 198 204 206 196
178 180 196 321 346 327 290 262 248 254 255 257 256 259 260 255 254 251 238 258 262 246 241 234 229 237 238 242 240 242 237 233 236 239 241 241 243 244 245 244 244 244 244 243 239 235 238 240 238 231 230 231 235 232 231 231 227 229 229 228 226 224 227 227 227 232 235 246 247 245 173 192 187 206 193 188 180 188 195 203 202 205 192 182 185
18 38 30 15 323 301 294 277 265 266 262 265 273 271 265 262 257 261 243 240 257 260 246 244 242 237 246 246 245 245 243 237 240 243 245 246 246 246 246 246 247 246 247 246 244 242 239 240 240 234 235 234 237 235 232 234 228 231 228 229 228 225 230 226 224 228 232 240 245 240 235 213 196 196 188 195 202 193 192 191 211 206 193 184 153
7 22 21 359 330 302 287 281 272 267 272 275 269 263 262 263 257 259 248 248 248 251 253 251 254 239 246 246 248 245 246 247 246 246 246 245 247 249 248 250 250 250 249 247 246 245 243 243 240 237 236 237 236 239 231 237 231 236 229 225 229 225 230 227 224 226 230 234 237 238 228 220 191 184 147 177 200 217 208 199 203 197 198 194 197
15 16 15 329 280 270 276 273 273 269 268 260 254 255 260 264 268 262 253 253 249 250 254 255 260 260 253 248 252 244 244 247 246 246 247 248 246 250 249 250 251 254 253 250 247 245 246 244 245 242 237 237 234 235 233 230 231 238 233 219 228 225 229 227 226 225 230 233 239 232 228 221 205 164 182 195 199 206 195 194 214 198 190 179 197
64 37 306 266 268 270 266 276 273 262 249 253 273 294 294 289 276 272 261 254 256 254 256 253 251 257 262 258 249 245 245 247 246 244 244 248 251 252 253 252 251 252 255 256 252 246 246 245 245 241 240 239 238 239 240 240 238 238 240 224 226 227 226 227 226 224 226 230 232 225 227 228 211 202 199 208 193 148 168 190 202 189 143 179 160
24 9 300 277 280 271 254 245 233 256 299 321 325 324 317 304 294 283 276 264 260 262 255 260 254 251 252 258 260 252 248 249 249 248 250 249 250 255 255 258 255 254 255 255 258 254 250 247 249 245 241 242 243 242 241 240 240 241 241 238 232 225 228 228 231 223 224 230 231 226 229 234 225 205 212 210 193 201 193 190 192 179 185 171 200
12 3 332 320 331 346 343 341 355 355 353 353 348 338 328 324 315 304 298 296 282 263 263 260 263 260 254 252 254 256 258 254 253 253 252 251 248 251 256 258 259 257 257 258 259 259 258 255 251 248 243 240 240 241 240 240 240 241 242 241 240 237 230 227 231 230 225 229 232 229 228 230 232 210 214 199 204 196 200 190 193 194 195 202 207
21 23 8 10 5 360 356 359 352 351 350 341 340 339 339 331 327 329 318 310 311 298 283 276 270 264 253 257 257 254 256 255 255 255 254 253 252 250 256 256 258 259 257 258 260 260 260 259 260 250 248 241 239 241 245 244 239 240 244 245 245 242 241 238 235 234 231 229 233 237 227 228 228 225 207 203 189 194 190 196 203 203 203 206 208
39 23 12 9 2 356 355 351 346 338 333 332 333 331 328 317 311 305 303 307 303 295 288 280 275 270 261 259 261 259 257 257 253 254 255 255 254 253 256 257 258 259 258 257 258 258 256 258 262 260 247 239 237 237 240 244 245 244 243 241 243 244 242 241 241 237 234 234 235 240 237 219 227 229 204 180 175 194 194 205 200 201 205 212 207
30 19 14 9 6 1 354 344 333 326 323 323 323 319 315 309 309 306 302 295 295 290 290 290 280 274 270 262 263 262 257 257 255 255 256 257 257 256 257 257 258 259 257 254 255 255 257 256 256 260 257 246 238 233 240 243 246 248 247 246 243 242 239 237 236 236 235 235 237 242 245 232 231 223 172 185 196 202 197 199 194 199 195 76 48
17 9 6 3 360 354 348 339 331 328 327 325 324 315 312 306 303 307 302 291 279 278 278 267 273 274 269 268 267 265 261 251 254 254 254 257 257 256 254 254 256 258 257 256 253 254 254 253 256 258 258 254 245 237 239 244 247 250 250 251 252 248 245 237 232 232 233 233 236 240 242 238 224 212 194 194 201 199 194 183 181 181 170 177 178
12 2 358 353 350 346 345 340 336 336 334 328 319 311 307 304 297 291 289 282 284 280 272 267 263 265 267 261 260 265 266 252 250 251 250 252 254 253 252 253 255 256 259 259 256 256 253 250 251 256 258 257 249 243 245 243 249 252 253 255 255 254 253 244 233 236 237 237 239 240 241 241 235 224 200 193 189 180 171 179 198 182 171 189 189
2 356 348 345 339 337 336 334 330 327 326 322 315 308 298 287 283 283 282 290 284 274 276 276 266 257 261 261 251 260 265 248 241 243 242 243 241 246 248 252 256 258 264 262 259 257 255 247 245 252 256 258 252 244 244 242 248 252 255 257 259 258 256 247 240 237 235 237 238 238 238 236 222 211 200 195 185 175 182 199 192 173 194 193 179
357 348 338 331 328 325 324 324 320 315 313 310 309 307 306 302 298 289 277 276 277 281 276 275 275 262 249 254 250 247 259 249 231 239 239 238 239 242 246 251 259 260 263 268 265 259 260 254 245 244 251 257 256 253 249 243 246 250 252 253 257 259 256 247 241 235 232 234 237 235 235 229 224 216 209 195 183 190 195 197 173 185 190 187 168
339 329 326 326 323 326 324 321 313 309 308 303 300 294 294 297 296 297 291 277 285 289 277 274 280 278 259 248 257 245 257 264 234 237 243 241 238 241 240 244 253 262 262 265 274 271 260 258 256 249 249 253 256 255 253 246 245 248 249 249 254 259 260 245 237 229 232 227 229 223 224 219 217 214 207 199 194 194 195 192 187 186 188 183 176
337 330 326 325 325 324 321 315 316 310 300 301 297 293 291 293 298 298 299 300 296 297 296 294 289 289 285 269 264 266 251 266 265 233 241 244 241 238 243 241 248 257 267 269 266 273 276 266 261 252 252 254 254 255 254 251 247 247 246 248 245 254 256 254 245 224 230 230 228 223 222 214 211 208 205 201 199 196 195 196 189 192 189 186 179
337 333 330 330 327 327 328 324 319 315 314 313 313 307 296 283 287 294 296 298 301 300 300 301 301 298 299 293 279 275 260 243 263 255 242 244 246 240 242 247 240 251 264 268 267 266 267 273 273 262 258 258 259 257 256 255 252 249 248 249 251 251 253 250 247 231 227 229 225 222 218 208 200 199 201 201 197 190 192 192 190 197 204 196 183
342 338 335 335 336 332 331 332 327 327 321 319 314 308 310 311 304 300 298 302 300 300 299 302 302 299 300 296 293 283 277 263 245 255 249 238 241 246 247 251 253 247 254 264 267 268 269 271 271 270 266 265 264 262 260 258 256 251 252 252 251 250 248 247 241 231 225 222 219 216 211 210 206 205 199 197 191 185 188 186 180 188 187 108 54
343 342 341 337 334 333 331 328 324 321 319 317 313 308 311 312 306 300 303 300 304 304 301 301 296 294 294 296 294 290 277 268 258 247 250 246 245 258 261 258 255 249 247 257 264 268 271 267 269 269 269 268 267 265 262 258 255 253 252 251 251 249 246 246 235 230 221 218 214 210 213 209 207 202 200 192 181 179 176 174 172 166 137 105 84
348 344 341 337 335 330 326 325 323 320 319 319 315 313 310 313 309 307 304 296 293 292 290 293 289 286 289 287 291 292 288 275 268 258 246 252 250 258 262 261 259 255 255 256 258 260 261 264 267 269 271 272 271 270 265 259 256 254 253 251 249 248 246 238 235 224 214 212 211 217 216 208 203 202 187 172 161 152 140 130 116 110 99 93 89
343 339 335 331 330 325 321 319 318 316 314 309 301 297 298 302 300 298 297 288 285 281 285 288 286 284 282 285 286 286 289 286 273 263 246 249 254 254 253 259 264 260 256 258 259 262 265 268 270 272 273 272 271 265 260 256 252 251 250 249 246 246 241 235 226 219 214 218 219 219 214 192 190 175 160 155 155 158 145 134 132 116 125 122 111
329 328 330 325 322 321 316 315 316 313 311 308 301 297 292 289 289 287 286 288 286 282 281 282 285 286 285 287 287 289 289 288 286 281 254 250 251 256 255 262 264 266 265 262 264 264 266 265 262 262 262 264 264 263 260 259 257 251 248 243 244 243 237 228 223 216 220 218 220 213 195 162 132 126 151 153 159 160 157 152 147 141 138 135 127
332 323 321 320 317 319 315 313 314 310 311 309 305 304 298 288 287 286 291 292 294 291 286 284 282 282 291 291 292 292 289 289 285 285 274 259 252 248 250 253 256 254 262 261 260 263 267 271 269 267 268 270 266 264 254 249 246 246 239 235 235 236 232 225 220 218 216 215 205 158 122 138 155 163 157 162 162 156 155 155 150 143 143 139 123
322 315 313 316 315 316 310 310 309 308 307 306 294 283 293 299 291 283 272 267 261 276 286 281 276 278 277 280 284 286 286 282 280 295 272 259 264 272 266 259 263 264 256 264 268 268 267 268 270 268 264 260 258 251 241 236 236 236 237 235 234 230 223 213 215 208 203 180 165 153 159 160 167 157 158 153 156 151 155 147 145 140 145 144 140
323 321 322 318 314 314 311 308 313 313 312 311 310 305 282 270 272 283 290 284 266 259 264 271 277 283 279 270 264 266 272 278 288 290 285 282 278 274 273 271 268 266 266 265 260 265 263 267 263 261 258 251 247 243 241 237 237 233 235 232 233 234 220 214 211 212 186 182 159 154 160 159 158 161 159 156 152 151 159 155 153 151 144 153 154
320 319 323 323 321 319 314 316 313 310 307 309 310 309 311 307 286 273 272 281 285 280 272 271 275 275 273 278 276 268 266 270 276 281 282 279 275 273 272 272 271 269 268 271 263 259 258 251 257 253 249 243 238 240 237 239 236 236 236 235 235 230 225 217 216 193 180 169 162 167 165 164 164 164 162 158 155 146 144 147 144 154 164 164 153
320 320 320 313 315 315 311 309 309 308 306 307 306 307 307 306 306 298 280 271 283 290 289 281 276 277 279 277 278 282 280 277 273 274 276 277 274 272 272 271 271 271 271 269 265 259 252 247 248 248 238 232 234 235 239 238 241 238 240 241 236 225 212 215 195 173 175 168 166 167 169 170 167 166 160 157 158 157 149 152 155 166 172 166 147
307 306 305 307 308 309 310 309 308 306 306 308 309 307 305 305 306 310 312 303 286 278 283 288 288 282 281 282 278 274 275 278 280 279 277 276 278 277 275 276 276 275 274 266 252 255 253 251 242 237 231 235 243 238 240 240 240 240 236 239 230 210 211 199 170 170 171 173 166 170 169 168 166 163 162 161 160 157 159 147 154 166 163 152 144
301 301 307 311 311 309 311 309 306 304 300 299 300 299 295 293 293 296 301 307 312 303 282 271 280 291 292 284 275 274 276 277 277 278 280 278 277 278 279 279 277 274 265 256 253 251 257 246 237 231 236 239 241 243 242 240 236 237 237 231 199 184 170 150 168 176 168 166 169 168 164 166 161 160 161 162 161 148 151 161 166 163 163 160 148
301 301 302 302 298 298 297 298 299 300 301 300 297 296 294 292 290 291 291 296 299 301 307 303 296 286 283 287 290 286 280 278 280 281 280 279 279 280 283 279 274 268 255 252 258 258 252 240 229 231 229 237 238 236 241 238 240 232 230 203 158 156 150 162 174 174 171 166 164 167 165 163 166 164 155 155 153 151 165 170 178 169 159 154 147
307 303 301 300 295 290 291 295 298 298 298 297 297 294 294 293 290 285 283 283 283 288 291 291 294 294 283 278 279 281 281 281 279 277 277 279 281 282 276 268 267 260 253 248 250 254 244 226 222 229 225 231 232 235 237 239 233 228 222 181 159 158 154 153 159 157 165 163 164 157 157 159 158 151 150 151 158 166 171 180 174 168 154 141 139
306 301 298 296 294 291 291 293 292 293 292 292 293 292 292 291 287 287 286 285 287 287 286 292 298 297 282 272 273 278 281 281 279 279 279 281 281 278 267 267 263 265 259 259 249 231 229 222 214 219 216 218 221 224 228 232 230 219 209 183 165 158 158 159 157 153 152 154 155 155 155 156 156 156 152 158 164 170 178 178 165 152 146 137 134
301 300 298 299 298 298 296 292 290 294 292 290 290 292 293 291 289 287 290 293 294 294 293 294 293 291 294 296 292 285 289 293 291 281 277 275 272 263 262 261 263 261 262 243 225 214 224 227 210 213 216 214 220 214 219 217 204 187 174 167 168 168 157 153 156 149 145 145 148 151 151 150 151 156 161 167 169 170 170 166 156 147 140 141 146
301 304 304 304 301 298 297 296 295 293 291 289 283 284 285 288 292 292 292 291 293 292 292 291 290 291 291 294 295 297 296 289 281 278 279 274 268 268 259 260 258 258 261 232 196 210 209 218 217 214 211 212 209 206 205 205 186 178 164 154 153 156 157 149 152 155 154 156 154 157 158 159 161 169 173 170 166 164 159 155 150 142 143 150 161
307 305 301 301 298 296 296 294 292 287 281 280 280 279 285 290 291 292 294 296 295 295 293 294 294 294 294 294 295 301 285 280 284 287 291 294 296 309 324 311 329 297 305 315 296 249 241 294 349 6 346 349 322 61 71 126 171 164 161 165 161 165 165 165 163 162 159 156 158 161 163 163 164 166 166 165 159 152 149 147 146 145 144 145 146
302 299 300 301 302 301 297 290 283 278 282 288 293 298 301 304 305 303 302 300 298 297 294 293 294 292 289 298 302 297 283 278 288 302 330 336 351 355 359 1 3 11 13 13 356 5 13 32 17 22 25 23 16 26 35 65 100 130 147 130 133 145 143 142 152 150 143 143 148 149 147 151 152 152 147 142 140 138 134 135 136 141 144 140 141
307 309 311 309 309 300 289 294 298 310 313 314 314 313 312 312 312 312 311 308 305 301 297 296 295 303 313 319 316 307 301 329 345 356 15 20 17 15 8 8 6 5 4 1 356 6 31 43 38 31 40 35 36 33 33 36 35 62 80 106 117 111 115 114 118 120 127 134 129 139 136 145 146 138 136 138 139 133 135 138 140 138 140 144 142
315 314 312 314 315 319 323 321 320 316 319 318 316 317 317 319 320 318 314 312 310 310 313 318 325 334 345 352 357 6 23 13 23 16 17 19 15 9 6 357 356 357 354 349 354 11 27 47 41 26 26 21 14 20 28 32 28 69 73 91 104 107 114 110 114 114 117 115 116 119 124 134 131 128 133 133 132 132 137 137 141 140 141 142 146
316 316 317 323 322 325 325 326 327 327 323 322 322 322 324 327 325 324 318 317 315 318 324 334 336 343 348 359 7 14 17 13 13 18 13 11 9 4 355 349 346 346 356 3 3 11 30 39 44 43 40 37 26 16 22 13 16 40 75 94 94 101 110 117 129 137 137 132 128 129 128 130 127 128 125 131 134 134 133 136 136 140 140 144 142
313 320 323 323 329 327 327 331 332 329 332 333 333 331 334 337 334 329 326 324 326 327 331 336 343 346 354 2 9 14 12 12 9 9 11 4 359 356 351 351 354 351 358 12 16 22 26 31 30 40 43 36 33 27 28 27 24 21 16 47 90 103 111 120 127 125 129 131 129 131 131 132 130 129 132 135 135 136 141 144 143 138 138 145 149
323 320 326 329 328 329 331 328 333 331 335 339 338 336 335 339 337 333 330 331 331 334 336 342 345 345 351 356 3 11 7 8 12 11 8 8 3 358 357 355 358 4 10 13 7 14 27 38 41 41 37 30 25 37 38 29 27 30 31 39 46 51 39 70 98 113 123 129 132 134 130 128 128 136 134 139 142 141 143 145 145 150 148 150 158
321 324 329 329 331 328 329 331 329 338 342 339 342 339 335 338 336 329 331 336 337 339 345 345 348 351 354 2 7 5 5 7 5 5 5 5 3 357 354 353 3 13 16 17 15 19 23 26 27 27 30 29 35 40 35 30 40 39 31 27 29 39 36 39 52 70 94 112 129 139 139 137 129 130 129 133 138 143 144 153 158 159 161 162 161
321 325 326 326 326 331 330 332 336 343 344 346 346 341 338 339 332 334 336 336 342 346 346 348 351 353 356 359 1 0 5 1 2 3 6 5 3 1 353 354 3 359 10 20 21 20 25 31 29 27 37 32 27 26 23 36 43 39 31 32 33 36 37 44 55 45 49 81 113 121 131 134 140 142 147 150 152 152 153 158 160 161 162 162 165
323 325 325 328 332 335 332 333 333 333 337 344 346 346 344 340 337 337 335 335 341 348 351 355 352 352 354 356 357 360 359 1 3 3 4 1 358 2 2 357 360 4 10 14 12 16 26 28 30 29 30 36 42 40 36 39 42 40 34 34 31 36 44 50 54 46 48 65 79 93 104 115 125 135 142 151 153 156 157 154 159 153 154 156 158
316 318 320 320 324 322 325 323 320 320 326 335 343 344 343 340 339 338 336 336 336 340 349 353 355 356 355 353 356 355 358 0 4 0 359 358 358 354 357 359 2 7 10 12 12 11 17 21 24 29 34 36 35 34 35 34 38 35 33 36 38 37 33 39 42 37 46 61 64 80 91 102 106 117 119 128 129 129 128 140 143 142 145 148 158
315 316 316 314 312 316 320 322 324 327 326 328 340 343 341 341 336 334 336 337 338 337 340 341 344 348 353 354 355 355 357 358 360 2 1 2 358 356 355 358 359 0 7 12 10 12 12 10 16 19 16 22 27 25 23 37 41 46 51 50 48 47 43 38 35 36 39 44 63 68 90 98 111 109 113 113 121 122 127 124 135 143 149 153 154